"TOA5","AWS1","CR1000","7964","CR1000.Std.14","CPU:AWS1_114.CR1","64363","TBL110"
"TIMESTAMP","RECORD","Wind_spd_WVc(1)","Wind_spd_WVc(2)","Air_Temp_Avg","Humidity_Avg","SW_upper_Wm2_Avg","Rain_Tot","Press_Avg","Issui_Tot","Depth_cm","SR50A_Raw","Quality","Ground_Temp_Avg(1)","Ground_Temp_Avg(2)","SW_lower_Wm2_Avg","Albedo_Avg","SWC_per(1)","SWC_per(2)","Period(1)","Period(2)"
"TS","RN","","","","","","","","","","","","","","","","","","",""
"","","WVc","WVc","Avg","Avg","Avg","Tot","Avg","Tot","Smp","Smp","Smp","Avg","Avg","Avg","Avg","Smp","Smp","Smp","Smp"
"2017-08-20 00:00:00",302029,0,0,17.12,100,0,0,867.816,0,0.127,3.084,208,22.01,21.62,0.5646415,0,49.03,56.18,33.05,34.79
"2017-08-20 00:10:00",302030,0,0,16.99,100,0,0,867.8214,0,-0.514,3.09,188,22.04,21.61,0.7768559,0,49.03,56.18,33.05,34.79
"2017-08-20 00:20:00",302031,0.056,161.3,16.95,100,0,0,867.8022,0,-36.61,3.442,207,21.98,21.57,0.8640153,0,49.03,56.12,33.05,34.78
"2017-08-20 00:30:00",302032,0,0,16.78,100,0,0,867.7679,0,-36.1,3.437,212,21.89,21.55,0.8867525,0,49.08,56.12,33.07,34.78
"2017-08-20 00:40:00",302033,0,0,16.61,100,0,0,867.5867,0,-0.624,3.095,200,21.93,21.55,0.6631697,0,49.08,56.12,33.07,34.78
"2017-08-20 00:50:00",302034,0,0,16.45,100,0,0,867.437,0,1.395,3.074,270,21.97,21.54,1.034545,0,49.03,56.12,33.05,34.78
"2017-08-20 01:00:00",302035,0.027,248.5,16.69,100,0,0,867.3457,0,4.542,3.043,402,21.91,21.54,1.73561,0,49.08,56.12,33.07,34.78
"2017-08-20 01:10:00",302036,0.009,216.6,16.54,100,0,0,867.3608,0,3.858,3.051,372,21.88,21.54,1.170968,0,49.03,56.12,33.05,34.78
"2017-08-20 01:20:00",302037,0.008,248.2,16.49,100,0,0,867.37,0,3.146,3.057,339,21.81,21.54,1.049703,0,49.03,56.12,33.05,34.78
"2017-08-20 01:30:00",302038,0,0,16.51,100,0,0,867.3643,0,1.285,3.076,257,21.85,21.54,0.7768559,0,49.03,56.12,33.05,34.78
"2017-08-20 01:40:00",302039,0,0,16.21,100,0,0,867.1985,0,0.24,3.088,213,21.84,21.54,0.1250549,0,49.08,56.12,33.07,34.78
"2017-08-20 01:50:00",302040,0,0,16.09,100,0,0,866.9636,0,-0.687,3.097,195,21.8,21.54,0.2690574,0,49.08,56.12,33.07,34.78
"2017-08-20 02:00:00",302041,0,0,16.17,100,0,0,866.8593,0,-1.098,3.101,193,21.75,21.54,0.5040089,0,49.03,56.06,33.05,34.76
"2017-08-20 02:10:00",302042,0.012,39.35,16.14,100,0,0,866.8546,0,12.43,2.97,237,21.74,21.54,0.7465395,0,49.03,56.12,33.05,34.78
"2017-08-20 02:20:00",302043,0.017,33.22,15.96,100,0,0,866.9939,0,11.85,2.977,271,21.77,21.53,0.6214847,0,49.03,56.06,33.05,34.76
"2017-08-20 02:30:00",302044,0.144,306.5,16.04,100,0.09432681,0,867.0587,0,12.02,2.974,267,21.71,21.52,0.8147513,0.924,49.03,56.12,33.05,34.78
"2017-08-20 02:40:00",302045,0.032,184.8,15.94,100,0,0,867.1195,0,12.47,2.97,253,21.71,21.51,0.2880051,0,49.08,56.06,33.07,34.76
"2017-08-20 02:50:00",302046,0.323,189.6,15.88,100,0,0,866.9389,0,-1.54,3.106,191,21.67,21.51,0.4812717,0,49.03,56.06,33.05,34.76
"2017-08-20 03:00:00",302047,0.278,175.4,15.96,100,0,0,866.8432,0,-1.462,3.105,190,21.69,21.49,0.6139057,0,49.03,56.06,33.05,34.76
"2017-08-20 03:10:00",302048,0.004,187.3,16.03,100,0,0,866.8577,0,-1.414,3.105,177,21.7,21.51,1.000439,0,49.08,56.06,33.07,34.76
"2017-08-20 03:20:00",302049,0,0,15.93,100,0,0,866.9982,0,-1.334,3.104,182,21.7,21.53,1.091388,0,49.08,56.06,33.07,34.76
"2017-08-20 03:30:00",302050,0,0,15.87,100,0,0,867.0188,0,-1.112,3.103,193,21.64,21.54,0.7579082,0,49.03,56.06,33.05,34.76
"2017-08-20 03:40:00",302051,0.036,187.8,15.62,100,0,0,866.9861,0,-30.32,3.388,197,21.59,21.54,0.3562168,0,49.03,56.06,33.05,34.76
"2017-08-20 03:50:00",302052,0,0,15.59,100,0,0,866.874,0,-1.99,3.112,192,21.62,21.54,0.9549643,0,49.03,56.06,33.05,34.76
"2017-08-20 04:00:00",302053,0,0,15.7,100,0,0,866.9045,0,-2.092,3.113,178,21.58,21.54,1.330129,0,49.08,56.06,33.07,34.76
"2017-08-20 04:10:00",302054,0.008,17.52,15.59,100,0,0,867.0707,0,-1.742,3.111,188,21.54,21.54,0.7579082,0,49.03,56.06,33.05,34.76
"2017-08-20 04:20:00",302055,0.098,177.5,15.29,100,0,0,867.0831,0,-1.906,3.114,193,21.49,21.53,0.2273725,0,49.03,56.06,33.05,34.76
"2017-08-20 04:30:00",302056,0.18,176,15.09,100,0,0,866.9545,0,-1.416,3.109,194,21.51,21.52,0.5722207,0,49.03,56,33.05,34.75
"2017-08-20 04:40:00",302057,0.349,190,15.25,100,0,0,866.8922,0,-1.948,3.113,197,21.54,21.49,1.038334,0,49.03,56,33.05,34.75
"2017-08-20 04:50:00",302058,0.095,193.5,15.54,100,0,0,867.0085,0,-0.549,3.098,216,21.48,21.47,1.250548,0,49.03,56.06,33.05,34.76
"2017-08-20 05:00:00",302059,0,0,15.55,100,0,0,867.1379,0,0.645,3.088,250,21.46,21.49,1.32255,0,49.03,56,33.05,34.75
"2017-08-20 05:10:00",302060,0.083,194.3,15.35,100,0,0,867.1473,0,0.883,3.085,242,21.42,21.49,1.098967,0,49.03,56,33.05,34.75
"2017-08-20 05:20:00",302061,0.052,257.5,15.5,100,2.200959,0,867.3666,0,-0.762,3.101,202,21.42,21.49,1.773505,1.003,49.03,56,33.05,34.75
"2017-08-20 05:30:00",302062,0,0,15.48,100,8.355783,0,867.4148,0,-1.181,3.106,200,21.37,21.49,2.243408,0.277,48.97,56,33.04,34.75
"2017-08-20 05:40:00",302063,0,0,15.28,100,13.42192,0,867.6123,0,-1.125,3.105,195,21.37,21.46,2.069089,0.155,49.03,56,33.05,34.75
"2017-08-20 05:50:00",302064,0,0,15.39,100,20.7519,0,867.657,0,-1.071,3.104,195,21.35,21.44,3.213531,0.155,48.97,56,33.04,34.75
"2017-08-20 06:00:00",302065,0,0,15.46,100,35.80488,0,867.6501,0,-0.834,3.101,202,21.33,21.44,5.108301,0.143,49.03,56,33.05,34.75
"2017-08-20 06:10:00",302066,0,0,15.66,100,37.86042,0,867.651,0,-0.55,3.098,193,21.35,21.44,5.604731,0.148,49.03,56,33.05,34.75
"2017-08-20 06:20:00",302067,0,0,15.71,100,92.14942,0,867.5217,0,-0.646,3.098,201,21.29,21.45,14.15015,0.154,49.03,56,33.05,34.75
"2017-08-20 06:30:00",302068,0.099,187.8,16.31,100,155.9143,0,867.5586,0,-0.451,3.091,197,21.28,21.44,20.29299,0.138,48.97,56,33.04,34.75
"2017-08-20 06:40:00",302069,0,0,16.92,100,112.0563,0,867.6057,0,0.698,3.078,216,21.26,21.42,17.77674,0.158,48.97,56,33.04,34.75
"2017-08-20 06:50:00",302070,0.246,1.324,17.39,99.9,150.4866,0,867.6137,0,-0.634,3.09,195,21.22,21.4,23.33978,0.159,49.03,55.95,33.05,34.74
"2017-08-20 07:00:00",302071,0.311,7.473,17.26,99,163.5193,0,867.5936,0,-0.561,3.09,195,21.21,21.41,23.47239,0.148,49.03,56,33.05,34.75
"2017-08-20 07:10:00",302072,0.128,0.418,17.15,98.4,111.3239,0,867.5174,0,-28.78,3.363,190,21.23,21.43,16.49566,0.148,48.97,55.95,33.04,34.74
"2017-08-20 07:20:00",302073,0,0,17.67,99.3,182.5957,0,867.5789,0,-0.49,3.084,197,21.25,21.42,25.00321,0.141,49.03,56,33.05,34.75
"2017-08-20 07:30:00",302074,0.15,313,18.19,95.7,192.5863,0,867.5856,0,0.894,3.072,280,21.22,21.37,26.0453,0.137,49.03,55.95,33.05,34.74
"2017-08-20 07:40:00",302075,0.653,2.005,17.76,97,171.9533,0,867.7872,0,-1.853,3.1,196,21.22,21.4,25.74926,0.15,48.97,55.95,33.04,34.74
"2017-08-20 07:50:00",302076,0.335,347.4,17.72,97.6,202.8633,0,867.814,0,1.206,3.069,268,21.19,21.38,26.20011,0.133,49.03,55.95,33.05,34.74
"2017-08-20 08:00:00",302077,0.018,44.15,18.4,96.5,345.4307,0,867.8202,0,0.379,3.072,234,21.18,21.34,34.41484,0.101,49.03,55.95,33.05,34.74
"2017-08-20 08:10:00",302078,0.152,134.2,19.13,90.5,281.3264,0,867.8202,0,4.091,3.033,375,21.16,21.31,34.66767,0.123,48.97,55.95,33.04,34.74
"2017-08-20 08:20:00",302079,0.184,11.92,19.59,87.7,375.0309,0,867.9297,0,-0.811,3.08,198,21.14,21.32,44.27135,0.118,48.97,55.95,33.04,34.74
"2017-08-20 08:30:00",302080,0.44,18.86,19.37,88.3,463.3387,0,867.9044,0,-28.48,3.348,197,21.12,21.26,56.51668,0.123,49.03,55.95,33.05,34.74
"2017-08-20 08:40:00",302081,0.408,17.52,19.52,88.3,348.4608,0,867.8433,0,-36.19,3.42,212,21.11,21.23,65.83177,0.192,48.97,55.95,33.04,34.74
"2017-08-20 08:50:00",302082,0.137,328.2,20.12,84.4,357.7249,0,867.8202,0,3.381,3.035,336,21.1,21.21,64.79915,0.181,49.03,55.95,33.05,34.74
"2017-08-20 09:00:00",302083,0.102,113,20.49,81,344.8023,0,867.8202,0,2.172,3.046,285,21.1,21.18,48.4255,0.14,48.97,55.95,33.04,34.74
"2017-08-20 09:10:00",302084,0.23,64.7,20.27,82.9,269.3278,0,867.8286,0,4.58,3.025,348,21.1,21.14,37.23885,0.138,49.03,55.95,33.05,34.74
"2017-08-20 09:20:00",302085,0.038,104.1,20.2,83.8,318.8886,0,867.8328,0,3.52,3.033,339,21.1,21.16,44.84204,0.141,48.97,55.95,33.04,34.74
"2017-08-20 09:30:00",302086,0.177,31.31,20.48,82.3,414.4077,0,867.8349,0,0.871,3.059,252,21.07,21.15,56.04747,0.135,49.03,55.95,33.05,34.74
"2017-08-20 09:40:00",302087,0.299,74.2,20.48,83.2,620.7155,0,867.8265,0,-28.83,3.343,197,21.05,21.14,79.87161,0.13,48.97,55.95,33.04,34.74
"2017-08-20 09:50:00",302088,0.222,31.7,21.01,80.4,539.1852,0,867.8202,0,12.86,2.939,275,21.01,21.11,68.75301,0.128,48.97,55.95,33.04,34.74
"2017-08-20 10:00:00",302089,0.265,85.8,20.84,81.7,393.2168,0,867.8202,0,13.46,2.935,264,21.03,21.14,54.15306,0.138,48.97,55.95,33.04,34.74
"2017-08-20 10:10:00",302090,0.131,91.8,20.98,82.5,500.1942,0,867.8202,0,13.39,2.935,290,21.04,21.15,69.84021,0.14,48.92,55.95,33.03,34.74
"2017-08-20 10:20:00",302091,0.15,192.5,21.59,80.6,621.7942,0,867.8223,0,4.114,3.021,263,21.13,21.14,86.28922,0.138,48.97,55.95,33.04,34.74
"2017-08-20 10:30:00",302092,0.165,49.91,21.57,79.66,471.3419,0,867.8686,0,-27.66,3.329,217,21.1,21.14,64.87083,0.137,48.92,55.95,33.03,34.74
"2017-08-20 10:40:00",302093,0.211,352,21.19,82,456.291,0,867.8559,0,-2.548,3.089,216,21.08,21.14,63.66196,0.139,48.92,55.89,33.03,34.72
"2017-08-20 10:50:00",302094,0.323,14.67,21.02,81.6,511.1137,0,867.8202,0,12.54,2.943,270,21.07,21.15,73.93545,0.144,48.92,55.89,33.03,34.72
"2017-08-20 11:00:00",302095,0.323,7.849,21.17,81.2,486.223,0,867.8202,0,0.771,3.055,208,21.2,21.08,70.51076,0.144,48.97,55.89,33.04,34.72
"2017-08-20 11:10:00",302096,0.303,329,21.27,81.2,450.0373,0,867.8202,0,-2.146,3.084,227,21.2,21.05,63.5555,0.14,48.92,55.89,33.03,34.72
"2017-08-20 11:20:00",302097,0.24,23.51,20.97,81.5,254.0339,0,867.7907,0,-1.565,3.08,254,21.27,21.03,34.33672,0.135,48.92,55.89,33.03,34.72
"2017-08-20 11:30:00",302098,0.175,329.7,20.58,82.9,194.7304,0,867.7233,0,-0.962,3.076,191,21.34,21.03,26.38517,0.135,48.92,55.89,33.03,34.72
"2017-08-20 11:40:00",302099,0.247,325.8,20.46,84.2,274.4191,0,867.8076,0,-0.398,3.071,194,21.29,21.05,40.78082,0.146,48.86,55.89,33.01,34.72
"2017-08-20 11:50:00",302100,0.361,325,20.63,84.7,339.0251,0,867.6537,0,2.84,3.04,338,21.4,21.06,50.28209,0.147,48.92,55.89,33.03,34.72
"2017-08-20 12:00:00",302101,0.221,30.96,21.05,81.9,599.2505,0,867.5759,0,-28.04,3.332,218,21.4,21.03,90.55115,0.15,48.86,55.89,33.01,34.72
"2017-08-20 12:10:00",302102,0.351,25.79,21.27,78.26,272.5634,0,867.5696,0,5.363,3.013,378,21.48,21.03,37.83335,0.138,48.86,55.83,33.01,34.71
"2017-08-20 12:20:00",302103,0.279,325.7,20.93,80.6,354.6229,0,867.5696,0,1.039,3.054,254,21.49,21.05,53.0848,0.147,48.86,55.89,33.01,34.72
"2017-08-20 12:30:00",302104,0.379,299.8,20.87,81,289.7716,0,867.5674,0,0.835,3.058,256,21.45,21.05,42.43979,0.146,48.86,55.83,33.01,34.71
"2017-08-20 12:40:00",302105,0.079,252.2,20.91,81.7,209.9079,0,867.5654,0,2.826,3.037,323,21.51,21.05,31.05988,0.145,48.86,55.83,33.01,34.71
"2017-08-20 12:50:00",302106,0.221,307.3,21.24,79.87,364.4958,0,867.5338,0,2.576,3.038,263,21.56,21.06,54.54755,0.147,48.86,55.83,33.01,34.71
"2017-08-20 13:00:00",302107,0.182,220.1,21.49,77.26,286.8158,0,867.3717,0,-1.878,3.08,202,21.55,21.07,41.54786,0.144,48.81,55.77,33,34.7
"2017-08-20 13:10:00",302108,0.527,68.1,21.3,77.27,202.5585,0,867.3654,0,-1.78,3.08,212,21.68,21.06,29.71587,0.146,48.81,55.83,33,34.71
"2017-08-20 13:20:00",302109,0.311,96.9,21.45,77.36,299.9704,0,867.3148,0,0.642,3.056,256,21.64,21.06,45.19055,0.15,48.81,55.83,33,34.71
"2017-08-20 13:30:00",302110,0.209,64.86,21.78,76.38,269.9391,0,867.3148,0,-1.727,3.077,211,21.66,21.05,39.95103,0.148,48.81,55.83,33,34.71
"2017-08-20 13:40:00",302111,0.158,90.8,21.76,75.81,221.7735,0,867.357,0,-38.53,3.432,248,21.75,21.05,31.96151,0.144,48.75,55.83,32.99,34.71
"2017-08-20 13:50:00",302112,0.24,112.2,21.52,76.77,328.7546,0,867.317,0,0.386,3.056,229,21.73,21.05,48.77753,0.147,48.81,55.83,33,34.71
"2017-08-20 14:00:00",302113,0.215,191.7,22.12,74.49,539.9409,0,867.3212,0,0.492,3.052,251,21.79,21.03,75.59586,0.14,48.75,55.83,32.99,34.71
"2017-08-20 14:10:00",302114,0.338,290,21.95,73.89,255.5757,0,867.378,0,-1.899,3.08,197,21.83,21.02,34.48901,0.136,48.75,55.77,32.99,34.7
"2017-08-20 14:20:00",302115,0.26,55.43,21.72,75.44,446.521,0,867.4391,0,0.408,3.056,270,21.81,21.02,56.90765,0.131,48.75,55.77,32.99,34.7
"2017-08-20 14:30:00",302116,0.429,353,22.28,73.27,571.8651,0,867.3148,0,-0.264,3.062,214,21.76,21.02,63.35128,0.114,48.7,55.77,32.97,34.7
"2017-08-20 14:40:00",302117,0.191,303,21.69,74.64,365.9273,0,867.3148,0,1.55,3.045,224,21.82,21.02,41.53495,0.12,48.75,55.77,32.99,34.7
"2017-08-20 14:50:00",302118,0.287,4.805,22.12,73.27,447.2195,0,867.3148,0,1.62,3.043,258,21.89,21.03,42.29235,0.096,48.7,55.77,32.97,34.7
"2017-08-20 15:00:00",302119,0.505,352.6,21.99,73.57,363.7861,0,867.2517,0,1.191,3.046,222,21.88,21,39.37897,0.129,48.7,55.77,32.97,34.7
"2017-08-20 15:10:00",302120,0.486,357.6,22.33,71.24,214.2859,0,867.2054,0,318,0,0,21.94,21.06,37.2198,0.174,48.65,55.72,32.96,34.68
"2017-08-20 15:20:00",302121,0.628,356.8,22.3,68.16,151.6788,0,867.1064,0,0.475,3.054,214,21.97,21.09,28.31753,0.187,48.7,55.72,32.97,34.68
"2017-08-20 15:30:00",302122,0.415,276.6,22.09,71.38,168.3882,0,867.0959,0,1.064,3.049,210,21.95,21.1,26.02929,0.156,48.65,55.72,32.96,34.68
"2017-08-20 15:40:00",302123,0.458,119.4,22.1,69.93,111.6713,0,867.2075,0,318,0,0,22.05,21.1,19.16146,0.171,48.65,55.72,32.96,34.68
"2017-08-20 15:50:00",302124,0.15,290.1,21.7,70.77,94.11707,0,867.2959,0,-27.61,3.328,205,22.04,21.11,14.35037,0.152,48.65,55.72,32.96,34.68
"2017-08-20 16:00:00",302125,0.476,17.66,21.61,71.36,98.82122,0,867.3148,0,-31.4,3.363,220,22.07,21.14,15.71056,0.159,48.59,55.66,32.95,34.67
"2017-08-20 16:10:00",302126,0.284,356.4,21.54,71.44,103.3873,0,867.3254,0,-27.61,3.327,217,22.1,21.14,16.19176,0.157,48.65,55.66,32.96,34.67
"2017-08-20 16:20:00",302127,0.361,28.6,21.66,71.24,92.86293,0,867.357,0,13.3,2.934,308,22.21,21.14,14.8661,0.16,48.65,55.72,32.96,34.68
"2017-08-20 16:30:00",302128,0.203,12.35,21.29,74.04,78.4603,0,867.3928,0,12.88,2.938,286,22.21,21.15,11.51733,0.147,48.59,55.66,32.95,34.67
"2017-08-20 16:40:00",302129,0.203,153,21.39,71.85,78.50462,0,867.317,0,-26.71,3.32,215,22.19,21.16,11.45687,0.146,48.59,55.66,32.95,34.67
"2017-08-20 16:50:00",302130,0.037,95.2,21.21,75.2,77.1193,0,867.3148,0,-27.11,3.325,198,22.18,21.17,10.87366,0.141,48.59,55.72,32.95,34.68
"2017-08-20 17:00:00",302131,0.128,96.9,21.06,74.86,67.59595,0,867.3148,0,-27.45,3.329,200,22.2,21.21,9.017402,0.133,48.59,55.66,32.95,34.67
"2017-08-20 17:10:00",302132,0.117,248.9,20.8,77.25,56.49471,0,867.3148,0,-28.62,3.341,201,22.24,21.22,6.967613,0.123,48.59,55.66,32.95,34.67
"2017-08-20 17:20:00",302133,0.088,293.9,20.73,79.27,47.88898,0,867.3485,0,-28.18,3.338,200,22.26,21.22,5.743819,0.12,48.59,55.66,32.95,34.67
"2017-08-20 17:30:00",302134,0.014,273.3,20.57,80.1,40.957,0,867.5633,0,-28.18,3.339,203,22.27,21.22,4.800371,0.117,48.59,55.66,32.95,34.67
"2017-08-20 17:40:00",302135,0.035,287.5,20.32,81.3,34.58244,0,867.6222,0,-28.23,3.341,197,22.26,21.21,3.932636,0.114,48.59,55.66,32.95,34.67
"2017-08-20 17:50:00",302136,0.007,274.8,20.09,79.69,34.07261,0,867.7633,0,-28.24,3.342,202,22.27,21.22,4.091879,0.12,48.54,55.66,32.93,34.67
"2017-08-20 18:00:00",302137,0.043,234.9,19.97,79.83,32.19909,0,867.8181,0,-27.85,3.339,231,22.27,21.23,4.035153,0.125,48.54,55.66,32.93,34.67
"2017-08-20 18:10:00",302138,0.002,234.4,19.91,80.3,23.58984,0,867.8202,0,-27.49,3.336,219,22.26,21.24,2.868238,0.121,48.54,55.66,32.93,34.67
"2017-08-20 18:20:00",302139,0,0,19.75,81.8,10.38246,0,867.8202,0,-27.24,3.335,221,22.27,21.24,1.026831,0.094,48.59,55.6,32.95,34.65
"2017-08-20 18:30:00",302140,0,0,19.47,83.7,2.047461,0,867.8496,0,-26.65,3.33,206,22.29,21.25,0.04925881,0.011,48.54,55.66,32.93,34.67
"2017-08-20 18:40:00",302141,0,0,19.34,84,0,0,868.0707,0,-26.88,3.334,198,22.3,21.25,0,0,48.54,55.66,32.93,34.67
"2017-08-20 18:50:00",302142,0.014,192.1,19.03,85.8,0,0,868.0729,0,12.63,2.954,252,22.3,21.26,0,0,48.59,55.6,32.95,34.65
"2017-08-20 19:00:00",302143,0.073,160.6,18.67,89.4,0,0,868.096,0,-27.72,3.345,218,22.32,21.28,0,0,48.54,55.66,32.93,34.67
"2017-08-20 19:10:00",302144,0.099,168.8,18.44,91.5,0,0,868.2939,0,-28.01,3.35,227,22.35,21.32,0,0,48.54,55.66,32.93,34.67
"2017-08-20 19:20:00",302145,0.052,170.6,18.22,92.6,0,0,868.3334,0,-28.42,3.353,228,22.32,21.36,0.03031582,0,48.54,55.6,32.93,34.65
"2017-08-20 19:30:00",302146,0,0,18.4,91,0,0,868.4043,0,4.637,3.033,296,22.24,21.36,0.3675822,0,48.54,55.6,32.93,34.65
"2017-08-20 19:40:00",302147,0,0,18.31,91.5,0,0,868.5751,0,5.341,3.028,383,22.23,21.36,0.2652642,0,48.48,55.6,32.92,34.65
"2017-08-20 19:50:00",302148,0.089,170.6,18.06,93.4,0,0,868.7448,0,2.909,3.052,284,22.28,21.36,0.2235807,0,48.48,55.6,32.92,34.65
"2017-08-20 20:00:00",302149,0.122,175.2,18,93.9,0,0,868.8308,0,4.241,3.04,381,22.26,21.37,0.295583,0,48.54,55.6,32.93,34.65
"2017-08-20 20:10:00",302150,0.114,175.5,17.86,94.5,0,0,868.8308,0,2.129,3.06,305,22.19,21.37,0.3562165,0,48.54,55.6,32.93,34.65
"2017-08-20 20:20:00",302151,0.06,173.6,18,93.5,0,0,868.8396,0,0.637,3.074,255,22.15,21.39,0.5267462,0,48.48,55.6,32.92,34.65
"2017-08-20 20:30:00",302152,0.008,172,18.07,93.2,0,0,869.0289,0,5.19,3.029,423,22.16,21.4,0.6063265,0,48.54,55.6,32.93,34.65
"2017-08-20 20:40:00",302153,0.129,121.6,18.19,92.3,0,0,869.0971,0,4.316,3.037,357,22.19,21.41,0.8526467,0,48.54,55.6,32.93,34.65
"2017-08-20 20:50:00",302154,0.451,137.6,18.21,92.8,0,0,869.1732,0,2.917,3.051,280,22.11,21.39,0.6139057,0,48.54,55.6,32.93,34.65
"2017-08-20 21:00:00",302155,0.415,154.8,18.13,93.9,0,0,869.0837,0,2.392,3.057,250,22.06,21.37,0.2122143,0,48.54,55.55,32.93,34.64
"2017-08-20 21:10:00",302156,0.269,158.8,17.89,95.5,0,0,869.0834,0,1.669,3.064,244,22.06,21.37,0.04926403,0,48.48,55.6,32.92,34.65
"2017-08-20 21:20:00",302157,0.102,168,18.1,93.8,0,0,869.0888,0,1.107,3.069,234,22.06,21.36,0.314531,0,48.48,55.55,32.92,34.64
"2017-08-20 21:30:00",302158,0.182,168.6,17.99,93.3,0,0,869.0862,0,2.853,3.053,270,22,21.36,0.1061057,0,48.54,55.55,32.93,34.64
"2017-08-20 21:40:00",302159,0.372,169.5,17.76,94.2,0,0,869.0955,0,-1.134,3.093,200,21.97,21.36,0,0,48.54,55.55,32.93,34.64
"2017-08-20 21:50:00",302160,0.14,163.7,17.82,93.5,0,0,869.0851,0,2.772,3.054,259,22.01,21.38,0.3145314,0,48.54,55.55,32.93,34.64
"2017-08-20 22:00:00",302161,0.135,161.9,18.01,91.7,0,0,869.0906,0,-0.442,3.084,204,22.05,21.4,0.4812706,0,48.48,55.55,32.92,34.64
"2017-08-20 22:10:00",302162,0.045,149.9,18.13,89.9,0,0,869.092,0,0.434,3.076,260,21.93,21.41,0.4471563,0,48.48,55.55,32.92,34.64
"2017-08-20 22:20:00",302163,0.41,182.3,17.84,91.2,0,0,868.969,0,-0.712,3.088,221,21.9,21.42,0.05305249,0,48.54,55.55,32.93,34.64
"2017-08-20 22:30:00",302164,0.251,178,17.84,90.5,0,0,869.0917,0,4.677,3.036,463,21.95,21.43,0.2273708,0,48.48,55.55,32.92,34.64
"2017-08-20 22:40:00",302165,0.059,178.3,17.88,89.3,0,0,869.0938,0,4.25,3.039,341,21.92,21.42,0.2993731,0,48.48,55.55,32.92,34.64
"2017-08-20 22:50:00",302166,0.127,174.5,18.06,87.7,0,0,869.0909,0,4.527,3.037,368,21.86,21.44,0.3637957,0,48.48,55.55,32.92,34.64
"2017-08-20 23:00:00",302167,0.298,172.8,17.72,90.1,0,0,869.0421,0,3.12,3.052,355,21.81,21.43,0.03789541,0,48.48,55.55,32.92,34.64
"2017-08-20 23:10:00",302168,0.223,172.9,17.43,91.7,0,0,869.077,0,-0.729,3.09,205,21.85,21.41,0,0,48.48,55.49,32.92,34.63
"2017-08-20 23:20:00",302169,0.155,163.7,17.57,90.8,0,0,868.9606,0,-1.396,3.096,199,21.8,21.42,0.189477,0,48.48,55.55,32.92,34.64
"2017-08-20 23:30:00",302170,0.031,155.1,17.51,90.8,0,0,868.912,0,-0.88,3.091,196,21.75,21.4,0.2084248,0,48.48,55.55,32.92,34.64
"2017-08-20 23:40:00",302171,0.039,134,17.72,88.9,0,0,869.0129,0,-0.293,3.083,214,21.72,21.4,0.5987474,0,48.48,55.49,32.92,34.63
"2017-08-20 23:50:00",302172,0.004,103.8,17.98,87.4,0,0,868.9553,0,0.477,3.076,238,21.77,21.39,0.7806454,0,48.48,55.49,32.92,34.63
